Akron, OH

12:23 AM EDT on July 23, 2017 (GMT -0400)
Akron Fulton International

Weather History for KAKR - August, 2013

Change the Weather History Date:

Monday, August 19, 2013

  Actual Average (KCAK) Record (KCAK)
Temperature  
Mean Temperature 70 °F -  
Max Temperature 81 °F 80 °F 95 °F (1916)
Min Temperature 60 °F 60 °F 47 °F (1953)
Cooling Degree Days 5    
Growing Degree Days 20 (Base 50)    
Moisture  
Dew Point 60 °F    
Average Humidity 79    
Maximum Humidity 96    
Minimum Humidity 42    
Precipitation  
Precipitation 0.00 in - - ()
Sea Level Pressure  
Sea Level Pressure 30.12 in    
Wind  
Wind Speed 2 mph (West)    
Max Wind Speed 8 mph    
Max Gust Speed -    
Visibility 7 miles    
Events      
Averages and records for this station are not official NWS values.
T = Trace of Precipitation, MM = Missing Value Source: NWS Daily Summary

Daily Weather History Graph

Daily Weather History Graph

Search for Another Location

Airport or City:

Trip Planner

Search our weather history database for the weather conditions in past years. The results will help you decide how hot, cold, wet, or windy it might be!

Date:

Astronomy

Aug. 19, 2013 Rise Set
Actual Time 6:39 AM EDT 8:18 PM EDT
Civil Twilight 6:10 AM EDT 8:47 PM EDT
Nautical Twilight 5:35 AM EDT 9:22 PM EDT
Astronomical Twilight 4:57 AM EDT 10:00 PM EDT
Moon 7:08 PM EDT (8/19) 4:57 AM EDT (8/19)
Length of Visible Light 14h 36m
Length of Day
13h 38m
Waxing Gibbous, 97% of the Moon is Illuminated
Aug 19
Waxing Gibbous
Aug 20
Full
Aug 28
Last Quarter
Sep 5
New
Sep 12
First Quarter

Hourly Weather History & Observations

Time (EDT) Temp. Heat Index Dew Point Humidity Pressure Visibility Wind Dir Wind Speed Gust Speed Precip Events Conditions
12:54 AM 64.9 °F - 62.1 °F 90% 30.14 in 10.0 mi Calm Calm - N/A   Overcast
1:54 AM 63.0 °F - 61.0 °F 93% 30.13 in 5.0 mi Calm Calm - N/A   Clear
1:58 AM 62.6 °F - 60.8 °F 94% 30.14 in 1.8 mi Calm Calm - N/A   Clear
2:07 AM 62.6 °F - 60.8 °F 94% 30.14 in 4.0 mi Calm Calm - N/A   Clear
2:51 AM 62.6 °F - 60.8 °F 94% 30.13 in 1.8 mi Calm Calm - N/A   Clear
2:54 AM 61.0 °F - 59.0 °F 93% 30.12 in 2.0 mi Calm Calm - N/A   Clear
2:59 AM 60.8 °F - 59.0 °F 94% 30.13 in 3.0 mi Calm Calm - N/A   Partly Cloudy
3:11 AM 62.6 °F - 60.8 °F 94% 30.13 in 6.0 mi Calm Calm - N/A   Mostly Cloudy
3:54 AM 64.0 °F - 63.0 °F 96% 30.11 in 6.0 mi SSW 4.6 mph - N/A   Overcast
4:37 AM 64.4 °F - 62.6 °F 94% 30.13 in 6.0 mi SW 5.8 mph - N/A   Overcast
4:54 AM 64.0 °F - 63.0 °F 96% 30.12 in 7.0 mi SSW 6.9 mph - N/A   Overcast
5:07 AM 64.4 °F - 62.6 °F 94% 30.14 in 7.0 mi SSW 3.5 mph - N/A   Overcast
5:54 AM 64.0 °F - 63.0 °F 96% 30.13 in 6.0 mi West 5.8 mph - N/A   Overcast
6:54 AM 64.9 °F - 63.0 °F 93% 30.14 in 5.0 mi Calm Calm - N/A   Overcast
7:54 AM 64.9 °F - 63.0 °F 93% 30.14 in 4.0 mi West 4.6 mph - N/A   Overcast
8:54 AM 64.9 °F - 63.0 °F 93% 30.14 in 6.0 mi WNW 6.9 mph - N/A   Overcast
9:54 AM 66.0 °F - 62.1 °F 87% 30.14 in 5.0 mi Calm Calm - N/A   Overcast
10:54 AM 69.1 °F - 62.1 °F 78% 30.14 in 7.0 mi North 3.5 mph - N/A   Overcast
11:26 AM 69.8 °F - 62.6 °F 78% 30.16 in 8.0 mi West 3.5 mph - N/A   Overcast
11:54 AM 71.1 °F - 63.0 °F 75% 30.14 in 8.0 mi Calm Calm - N/A   Overcast
12:19 PM 71.6 °F - 62.6 °F 73% 30.15 in 9.0 mi Calm Calm - N/A   Scattered Clouds
12:54 PM 73.9 °F - 62.1 °F 66% 30.12 in 10.0 mi Calm Calm - N/A   Partly Cloudy
1:54 PM 75.9 °F - 60.1 °F 58% 30.12 in 10.0 mi West 5.8 mph - N/A   Scattered Clouds
2:54 PM 78.1 °F - 59.0 °F 52% 30.11 in 10.0 mi West 4.6 mph - N/A   Scattered Clouds
3:54 PM 80.1 °F 80.1 °F 55.0 °F 42% 30.09 in 10.0 mi Calm Calm - N/A   Mostly Cloudy
4:54 PM 79.0 °F - 55.0 °F 44% 30.08 in 10.0 mi ESE 3.5 mph - N/A   Overcast
5:54 PM 79.0 °F - 57.9 °F 48% 30.08 in 10.0 mi North 8.1 mph - N/A   Overcast
6:54 PM 77.0 °F - 57.0 °F 50% 30.08 in 10.0 mi NNW 6.9 mph - N/A   Scattered Clouds
7:54 PM 75.0 °F - 55.9 °F 51% 30.08 in 10.0 mi North 3.5 mph - N/A   Clear
8:54 PM 68.0 °F - 57.0 °F 68% 30.09 in 8.0 mi Calm Calm - N/A   Clear
9:54 PM 66.0 °F - 57.0 °F 73% 30.11 in 10.0 mi Calm Calm - N/A   Clear
10:54 PM 62.1 °F - 57.9 °F 86% 30.11 in 7.0 mi Calm Calm - N/A   Clear
11:54 PM 62.1 °F - 59.0 °F 90% 30.12 in 6.0 mi Calm Calm - N/A   Clear